Regional Weather Roundup
Issued by NWS

Home | Current Version | Previous Version | Text Only | Print | Product List | Glossary Off
Versions: 1 2 3 4 5 6 7 8 9 10 11 12 13 14 15 16 17 18 19 20 21 22 23 24 25 26 27

000
ASUS45 KBOI 281010
RWRID

IDAHO REGIONAL WEATHER ROUNDUP
NATIONAL WEATHER SERVICE BOISE ID
400 AM MDT THU JUL 28 2016

NOTE: "FAIR" INDICATES FEW OR NO CLOUDS BELOW 12000 FEET
WITH NO SIGNIFICANT WEATHER AND/OR OBSTRUCTIONS TO VISIBILITY

IDZ012-014-281100-
SOUTHWEST IDAHO


CITY           SKY/WX    TMP DP  RH WIND       PRES   REMARKS
BOISE          CLEAR     70  47  43 CALM      30.02R
CALDWELL       CLEAR     73  48  41 W12       30.00R
MOUNTAIN HOME  CLEAR     73  42  32 NW10      30.00R
$$

IDZ016-017-281100-
SOUTHCENTRAL IDAHO


CITY           SKY/WX    TMP DP  RH WIND       PRES   REMARKS
BURLEY         CLEAR     60  48  64 CALM      30.07R
JEROME         CLEAR     69  43  38 SE7       30.07R
TWIN FALLS     CLEAR     69  38  32 S13       30.08R
$$

IDZ019>023-281100-
SOUTHEAST IDAHO


CITY           SKY/WX    TMP DP  RH WIND       PRES   REMARKS
IDAHO FALLS    CLEAR     57  45  64 N5        30.13S
POCATELLO      CLEAR     60  41  49 NW3       30.12R
REXBURG        CLEAR     63  47  55 E5        30.14R
$$

IDZ006-010-011-018-031-032-281100-
CENTRAL IDAHO MOUNTAINS


CITY           SKY/WX    TMP DP  RH WIND       PRES   REMARKS
MCCALL         CLEAR     56  48  74 CALM      30.20R
HAILEY         CLEAR     59  39  47 NW8       30.19S
STANLEY          N/A     46  35  65 CALM      30.31R
SALMON         CLEAR     57  45  62 CALM      30.12R
CHALLIS        CLEAR     60  39  45 CALM      30.18R
$$

IDZ002-004-006-007-026-281100-
NORTHERN IDAHO


CITY           SKY/WX    TMP DP  RH WIND       PRES   REMARKS
LEWISTON       CLEAR     73  50  44 CALM      30.00S
LOWELL           N/A     63  57  81 NW3       30.07R
COEUR D`ALENE  CLEAR     66  52  59 NE10      30.05R
MULLAN PASS    CLEAR     64  42  44 CALM      30.28R
$$




USA.gov is the U.S. government's official web portal to all federal, state and local government web resources and services.